| time (UTC) | temp F | wind direction | speed MPH | gust MPH | rain 1hr in | rain 24hr in | rain mn in | humidity % | barometer mb |
| 20260504045431 | 50 | 10 | 0.0 | 1.0 | 0.00 | 0.00 | 0.00 | 61 | 1018.5 |
| 20260504044531 | 51 | 16 | 0.0 | 2.0 | 0.00 | 0.00 | 0.00 | 63 | 1018.5 |
| 20260504043631 | 51 | 0 | 0.0 | 0.0 | 0.00 | 0.00 | 0.00 | 65 | 1018.5 |
| 20260504042752 | 52 | 0 | 0.0 | 0.0 | 0.00 | 0.00 | 0.00 | 65 | 1018.2 |
| 20260504041831 | 53 | 304 | 0.0 | 1.0 | 0.00 | 0.00 | 0.00 | 62 | 1018.4 |
| 20260504040931 | 53 | 357 | 0.0 | 3.0 | 0.00 | 0.00 | 0.00 | 55 | 1018.3 |
| 20260504040031 | 53 | 350 | 0.0 | 2.0 | 0.00 | 0.00 | 0.00 | 47 | 1018.4 |
| 20260504035431 | 53 | 352 | 0.0 | 2.0 | 0.00 | 0.00 | 0.00 | 49 | 1018.5 |
| 20260504034531 | 52 | 322 | 0.0 | 2.0 | 0.00 | 0.00 | 0.00 | 48 | 1018.6 |
| 20260504033631 | 52 | 324 | 0.0 | 2.0 | 0.00 | 0.00 | 0.00 | 49 | 1018.5 |
| 20260504032731 | 51 | 319 | 0.0 | 1.0 | 0.00 | 0.00 | 0.00 | 50 | 1018.5 |
| 20260504031830 | 50 | 319 | 0.0 | 1.0 | 0.00 | 0.00 | 0.00 | 52 | 1018.6 |
| 20260504030931 | 49 | 319 | 0.0 | 1.0 | 0.00 | 0.00 | 0.00 | 56 | 1018.6 |
| 20260504030031 | 48 | 323 | 0.0 | 1.0 | 0.00 | 0.00 | 0.00 | 60 | 1018.5 |
| 20260504025430 | 47 | 0 | 0.0 | 0.0 | 0.00 | 0.00 | 0.00 | 67 | 1018.5 |
| 20260504024530 | 47 | 332 | 0.0 | 1.0 | 0.00 | 0.00 | 0.00 | 70 | 1018.6 |
| 20260504023630 | 46 | 335 | 0.0 | 1.0 | 0.00 | 0.00 | 0.00 | 71 | 1018.6 |
| 20260504022751 | 46 | 335 | 0.0 | 1.0 | 0.00 | 0.00 | 0.00 | 72 | 1018.6 |
| 20260504021830 | 46 | 0 | 0.0 | 0.0 | 0.00 | 0.00 | 0.00 | 71 | 1018.5 |
| 20260504020931 | 47 | 318 | 0.0 | 1.0 | 0.00 | 0.00 | 0.00 | 70 | 1018.4 |
| 20260504020030 | 47 | 313 | 0.0 | 1.0 | 0.00 | 0.00 | 0.00 | 69 | 1018.4 |
| 20260504015430 | 47 | 309 | 0.0 | 1.0 | 0.00 | 0.00 | 0.00 | 66 | 1018.2 |
| 20260504014530 | 48 | 300 | 0.0 | 3.0 | 0.00 | 0.00 | 0.00 | 67 | 1018.3 |
| 20260504013630 | 48 | 320 | 0.0 | 3.0 | 0.00 | 0.00 | 0.00 | 59 | 1018.1 |
| 20260504012730 | 48 | 0 | 0.0 | 0.0 | 0.00 | 0.00 | 0.00 | 63 | 1018.0 |
| 20260504011830 | 48 | 0 | 0.0 | 0.0 | 0.00 | 0.00 | 0.00 | 64 | 1018.0 |
| 20260504010930 | 49 | 0 | 0.0 | 0.0 | 0.00 | 0.00 | 0.00 | 62 | 1017.9 |
| 20260504010030 | 50 | 0 | 0.0 | 0.0 | 0.00 | 0.00 | 0.00 | 60 | 1017.8 |
| 20260504005430 | 50 | 0 | 0.0 | 0.0 | 0.00 | 0.00 | 0.00 | 60 | 1017.7 |
| 20260504004551 | 51 | 0 | 0.0 | 0.0 | 0.00 | 0.00 | 0.00 | 58 | 1017.7 |
| 20260504003630 | 52 | 0 | 0.0 | 0.0 | 0.00 | 0.00 | 0.00 | 55 | 1017.6 |
| 20260504002730 | 53 | 0 | 0.0 | 0.0 | 0.00 | 0.00 | 0.00 | 54 | 1017.5 |
| 20260504001830 | 54 | 8 | 0.0 | 1.0 | 0.00 | 0.00 | 0.00 | 52 | 1017.4 |
| 20260504000930 | 55 | 3 | 0.0 | 2.0 | 0.00 | 0.00 | 0.00 | 46 | 1017.5 |
| 20260504000051 | 56 | 337 | 0.0 | 2.0 | 0.00 | 0.00 | 0.00 | 44 | 1017.5 |
| 20260503235451 | 57 | 0 | 0.0 | 0.0 | 0.00 | 0.00 | 0.00 | 39 | 1017.4 |
| 20260503234551 | 58 | 0 | 0.0 | 0.0 | 0.00 | 0.00 | 0.00 | 36 | 1017.3 |
| 20260503233630 | 58 | 290 | 1.0 | 2.0 | 0.00 | 0.00 | 0.00 | 35 | 1017.3 |
| 20260503232729 | 59 | 304 | 1.0 | 2.0 | 0.00 | 0.00 | 0.00 | 33 | 1017.2 |
| 20260503231830 | 60 | 305 | 1.0 | 3.0 | 0.00 | 0.00 | 0.00 | 31 | 1017.3 |
| 20260503230950 | 60 | 308 | 1.0 | 3.0 | 0.00 | 0.00 | 0.00 | 32 | 1017.1 |
| 20260503230029 | 61 | 296 | 1.0 | 6.0 | 0.00 | 0.00 | 0.00 | 28 | 1017.0 |
| 20260503225429 | 62 | 273 | 1.0 | 3.0 | 0.00 | 0.00 | 0.00 | 30 | 1017.1 |
| 20260503224550 | 63 | 298 | 1.0 | 4.0 | 0.00 | 0.00 | 0.00 | 28 | 1017.1 |
| 20260503223629 | 64 | 297 | 1.0 | 3.0 | 0.00 | 0.00 | 0.00 | 26 | 1017.2 |
| 20260503222750 | 65 | 253 | 1.0 | 8.0 | 0.00 | 0.00 | 0.00 | 27 | 1017.3 |
| 20260503221850 | 66 | 261 | 1.0 | 3.0 | 0.00 | 0.00 | 0.00 | 24 | 1017.3 |
| 20260503220929 | 65 | 290 | 1.0 | 6.0 | 0.00 | 0.00 | 0.00 | 25 | 1017.4 |
| 20260503220029 | 66 | 285 | 1.0 | 3.0 | 0.00 | 0.00 | 0.00 | 25 | 1017.4 |
| 20260503215429 | 66 | 279 | 1.0 | 4.0 | 0.00 | 0.00 | 0.00 | 27 | 1017.3 |
| 20260503214529 | 65 | 333 | 2.0 | 8.0 | 0.00 | 0.00 | 0.00 | 25 | 1017.4 |
| 20260503213629 | 65 | 265 | 2.0 | 5.0 | 0.00 | 0.00 | 0.00 | 26 | 1017.5 |
| 20260503212729 | 66 | 285 | 1.0 | 5.0 | 0.00 | 0.00 | 0.00 | 25 | 1017.6 |
| 20260503211829 | 65 | 288 | 2.0 | 5.0 | 0.00 | 0.00 | 0.00 | 25 | 1017.6 |
| 20260503210929 | 65 | 24 | 1.0 | 5.0 | 0.00 | 0.00 | 0.00 | 26 | 1017.6 |
| 20260503210029 | 64 | 149 | 2.0 | 7.0 | 0.00 | 0.00 | 0.00 | 27 | 1017.7 |
| 20260503205429 | 64 | 284 | 3.0 | 7.0 | 0.00 | 0.00 | 0.00 | 29 | 1017.7 |
| 20260503204529 | 64 | 276 | 2.0 | 7.0 | 0.00 | 0.00 | 0.00 | 24 | 1017.9 |
| 20260503203629 | 64 | 260 | 2.0 | 6.0 | 0.00 | 0.00 | 0.00 | 28 | 1017.9 |
| 20260503202729 | 64 | 262 | 1.0 | 5.0 | 0.00 | 0.00 | 0.00 | 25 | 1018.0 |
| 20260503201829 | 63 | 279 | 2.0 | 10.0 | 0.00 | 0.00 | 0.00 | 27 | 1018.1 |
| 20260503200929 | 63 | 262 | 3.0 | 8.0 | 0.00 | 0.00 | 0.00 | 28 | 1018.3 |
| 20260503200049 | 63 | 229 | 2.0 | 10.0 | 0.00 | 0.00 | 0.00 | 26 | 1018.4 |
| 20260503195429 | 63 | 255 | 2.0 | 10.0 | 0.00 | 0.00 | 0.00 | 27 | 1018.5 |
| 20260503194550 | 63 | 147 | 2.0 | 7.0 | 0.00 | 0.00 | 0.00 | 30 | 1018.6 |
| 20260503193629 | 62 | 245 | 3.0 | 9.0 | 0.00 | 0.00 | 0.00 | 28 | 1018.9 |
| 20260503192728 | 61 | 285 | 3.0 | 9.0 | 0.00 | 0.00 | 0.00 | 30 | 1018.8 |
| 20260503191828 | 61 | 257 | 3.0 | 10.0 | 0.00 | 0.00 | 0.00 | 28 | 1019.0 |
| 20260503190950 | 61 | 234 | 3.0 | 14.0 | 0.00 | 0.00 | 0.00 | 29 | 1019.0 |
| 20260503190028 | 62 | 214 | 2.0 | 9.0 | 0.00 | 0.00 | 0.00 | 29 | 1019.3 |
| 20260503185449 | 61 | 286 | 2.0 | 8.0 | 0.00 | 0.00 | 0.00 | 33 | 1019.3 |
| 20260503184528 | 61 | 253 | 3.0 | 10.0 | 0.00 | 0.00 | 0.00 | 32 | 1019.6 |
| 20260503183628 | 61 | 239 | 2.0 | 9.0 | 0.00 | 0.00 | 0.00 | 37 | 1019.6 |
| 20260503182749 | 60 | 202 | 3.0 | 12.0 | 0.00 | 0.00 | 0.00 | 32 | 1019.8 |
| 20260503181828 | 60 | 141 | 2.0 | 6.0 | 0.00 | 0.00 | 0.00 | 37 | 1019.8 |
| 20260503180928 | 59 | 281 | 2.0 | 12.0 | 0.00 | 0.00 | 0.00 | 33 | 1020.0 |
| 20260503180028 | 59 | 251 | 2.0 | 6.0 | 0.00 | 0.00 | 0.00 | 36 | 1020.0 |
| 20260503175428 | 58 | 247 | 4.0 | 11.0 | 0.00 | 0.00 | 0.00 | 36 | 1020.0 |
| 20260503174528 | 59 | 198 | 3.0 | 8.0 | 0.00 | 0.00 | 0.00 | 36 | 1020.1 |
| 20260503173628 | 58 | 225 | 2.0 | 8.0 | 0.00 | 0.00 | 0.00 | 35 | 1020.3 |
| 20260503172728 | 57 | 276 | 3.0 | 11.0 | 0.00 | 0.00 | 0.00 | 35 | 1020.4 |
| 20260503171828 | 56 | 274 | 4.0 | 16.0 | 0.00 | 0.00 | 0.00 | 36 | 1020.5 |
| 20260503170928 | 59 | 156 | 2.0 | 6.0 | 0.00 | 0.00 | 0.00 | 34 | 1020.8 |
| 20260503150927 | 53 | 212 | 2.0 | 7.0 | 0.00 | 0.00 | 0.00 | 41 | 1021.7 |
| 20260503130927 | 46 | 166 | 2.0 | 5.0 | 0.00 | 0.00 | 0.00 | 55 | 1021.7 |
| 20260503080925 | 37 | 8 | 0.0 | 2.0 | 0.00 | 0.00 | 0.00 | 86 | 1018.4 |
| 20260503072725 | 37 | 10 | 0.0 | 2.0 | 0.00 | 0.00 | 0.00 | 86 | 1018.0 |
| 20260503071825 | 38 | 13 | 0.0 | 2.0 | 0.00 | 0.00 | 0.00 | 86 | 1018.0 |
| 20260503070925 | 38 | 347 | 0.0 | 3.0 | 0.00 | 0.00 | 0.00 | 86 | 1018.1 |